Weather History for LHBP - June, 2012

Change the Weather History Date:

Monday, June 11, 2012

  Actual Average Record
Temperature  
Mean Temperature 66 °F -  
Max Temperature 71 °F 76 °F - ()
Min Temperature 60 °F 54 °F - ()
Growing Degree Days 16 (Base 50)    
Moisture  
Dew Point 59 °F    
Average Humidity 82    
Maximum Humidity 100    
Minimum Humidity 57    
Precipitation  
Precipitation 0.00 in - - ()
Sea Level Pressure  
Sea Level Pressure 29.69 in    
Wind  
Wind Speed 6 mph ()    
Max Wind Speed 14 mph    
Max Gust Speed -    
Visibility 5.3 miles    
Events Fog , Rain    
T = Trace of Precipitation, MM = Missing Value Source: Averaged Metar Reports

Daily Weather History Graph

Daily Weather History Graph

Search for Another Location

Airport or City:

Trip Planner

Search our weather history database for the weather conditions in past years. The results will help you decide how hot, cold, wet, or windy it might be!

Date:

Astronomy

Jun. 11, 2012 Rise Set
Actual Time 4:45 AM CEST 8:39 PM CEST
Civil Twilight 4:05 AM CEST 9:20 PM CEST
Nautical Twilight 3:10 AM CEST 10:15 PM CEST
Astronomical Twilight 1:46 AM CEST 11:39 PM CEST
Moon 12:25 AM CEST (6/11) 12:45 PM CEST (6/11)
Length of Visible Light 17h 14m
Length of Day
15h 54m
Waning Gibbous, 50% of the Moon is Illuminated
Jun 11
Waning Gibbous
Jun 11
Last Quarter
Jun 19
New
Jun 27
First Quarter
Jul 3
Full

Hourly Weather History & Observations

Time (CEST) Temp. Dew Point Humidity Pressure Visibility Wind Dir Wind Speed Gust Speed Precip Events Conditions
12:00 AM 66.2 °F 64.4 °F 94% 29.71 in - SE 5.8 mph - N/A   Clear
12:30 AM 64.4 °F 64.4 °F 100% 29.71 in 5.0 mi Variable 2.3 mph - N/A   Mostly Cloudy
1:00 AM 64.4 °F 64.4 °F 100% 29.71 in 3.1 mi Variable 3.5 mph - N/A Fog Shallow Fog
1:30 AM 66.2 °F 66.2 °F 100% 29.71 in 4.3 mi South 5.8 mph - N/A   Scattered Clouds
2:00 AM 64.4 °F 64.4 °F 100% 29.71 in 1.2 mi NW 4.6 mph - N/A Fog Patches of Fog
2:30 AM 66.2 °F 66.2 °F 100% 29.71 in 6.2 mi NW 4.6 mph - N/A   Mostly Cloudy
3:00 AM 64.4 °F 64.4 °F 100% 29.68 in 6.2 mi NW 5.8 mph - N/A   Partly Cloudy
3:30 AM 64.4 °F 62.6 °F 94% 29.68 in 6.2 mi Calm Calm - N/A   Partly Cloudy
4:00 AM 62.6 °F 60.8 °F 94% 29.68 in 6.2 mi WNW 5.8 mph - N/A   Scattered Clouds
4:30 AM 62.6 °F 60.8 °F 94% 29.68 in 6.2 mi Variable 3.5 mph - N/A   Mostly Cloudy
5:00 AM 62.6 °F 60.8 °F 94% 29.68 in 3.7 mi Variable 3.5 mph - N/A   Overcast
5:30 AM 62.6 °F 60.8 °F 94% 29.68 in 3.7 mi West 5.8 mph - N/A   Overcast
6:00 AM 62.6 °F 60.8 °F 94% 29.68 in 3.7 mi SW 6.9 mph - N/A Rain Light Rain
6:30 AM 62.6 °F 60.8 °F 94% 29.71 in 3.7 mi SW 6.9 mph - N/A Rain Light Rain
7:00 AM 62.6 °F 60.8 °F 94% 29.71 in 3.1 mi SW 4.6 mph - N/A Rain Light Rain
7:30 AM 60.8 °F 60.8 °F 100% 29.71 in 2.8 mi SW 6.9 mph - N/A Rain Light Rain
8:00 AM 60.8 °F 59.0 °F 94% 29.71 in 2.8 mi SW 9.2 mph - N/A Rain Light Rain
8:30 AM 60.8 °F 59.0 °F 94% 29.71 in 2.8 mi SSW 5.8 mph - N/A Rain Light Rain
9:00 AM 60.8 °F 59.0 °F 94% 29.71 in 3.1 mi SW 6.9 mph - N/A   Mostly Cloudy
9:30 AM 62.6 °F 59.0 °F 88% 29.68 in 5.0 mi SW 9.2 mph - N/A Rain Light Rain
10:00 AM 62.6 °F 60.8 °F 94% 29.68 in 5.0 mi SW 9.2 mph - N/A   Mostly Cloudy
10:30 AM 64.4 °F 59.0 °F 83% 29.68 in 6.2 mi SW 10.4 mph - N/A Rain Light Rain Showers
11:00 AM 64.4 °F 59.0 °F 83% 29.68 in 6.2 mi SW 11.5 mph - N/A   Mostly Cloudy
11:30 AM 64.4 °F 59.0 °F 83% 29.68 in 6.2 mi SW 11.5 mph - N/A   Mostly Cloudy
12:00 PM 64.4 °F 59.0 °F 83% 29.68 in 6.2 mi SW 10.4 mph - N/A   Mostly Cloudy
12:30 PM 66.2 °F 59.0 °F 78% 29.68 in 6.2 mi WSW 11.5 mph - N/A   Mostly Cloudy
1:00 PM 64.4 °F 57.2 °F 77% 29.71 in 6.2 mi West 11.5 mph - N/A   Mostly Cloudy
1:30 PM 66.2 °F 57.2 °F 73% 29.71 in 6.2 mi West 13.8 mph - N/A   Mostly Cloudy
2:00 PM 68.0 °F 57.2 °F 68% 29.68 in 6.2 mi West 10.4 mph - N/A   Scattered Clouds
2:30 PM 68.0 °F 55.4 °F 64% 29.68 in 6.2 mi WSW 11.5 mph - N/A   Mostly Cloudy
3:00 PM 69.8 °F 55.4 °F 60% 29.68 in 6.2 mi West 10.4 mph - N/A   Mostly Cloudy
3:30 PM 69.8 °F 57.2 °F 64% 29.68 in 6.2 mi West 10.4 mph - N/A   Mostly Cloudy
4:00 PM 71.6 °F 55.4 °F 57% 29.68 in 6.2 mi WNW 9.2 mph - N/A   Mostly Cloudy
4:30 PM 69.8 °F 55.4 °F 60% 29.68 in 6.2 mi West 6.9 mph - N/A   Scattered Clouds
5:00 PM 71.6 °F 55.4 °F 57% 29.68 in 6.2 mi SW 8.1 mph - N/A   Scattered Clouds
5:30 PM 71.6 °F 55.4 °F 57% 29.68 in 6.2 mi WSW 8.1 mph - N/A   Scattered Clouds
6:00 PM 71.6 °F 55.4 °F 57% 29.68 in 6.2 mi WSW 8.1 mph - N/A   Scattered Clouds
6:30 PM 69.8 °F 55.4 °F 60% 29.68 in 6.2 mi WSW 6.9 mph - N/A   Scattered Clouds
7:00 PM 69.8 °F 55.4 °F 60% 29.65 in 6.2 mi West 5.8 mph - N/A   Scattered Clouds
7:30 PM 69.8 °F 55.4 °F 60% 29.65 in 6.2 mi WSW 4.6 mph - N/A   Scattered Clouds
8:00 PM 69.8 °F 55.4 °F 60% 29.65 in 6.2 mi Variable 2.3 mph - N/A   Scattered Clouds
8:30 PM 68.0 °F 57.2 °F 68% 29.68 in 6.2 mi Variable 3.5 mph - N/A   Mostly Cloudy
9:00 PM 66.2 °F 57.2 °F 73% 29.68 in 6.2 mi NNW 5.8 mph - N/A   Mostly Cloudy
9:30 PM 66.2 °F 57.2 °F 73% 29.68 in 6.2 mi Variable 2.3 mph - N/A   Mostly Cloudy
10:00 PM 62.6 °F 57.2 °F 82% 29.68 in 6.2 mi Variable 1.2 mph - N/A   Mostly Cloudy
10:30 PM 60.8 °F 57.2 °F 88% 29.68 in 6.2 mi Variable 3.5 mph - N/A   Mostly Cloudy
11:00 PM 60.8 °F 57.2 °F 88% 29.68 in 6.2 mi Variable 3.5 mph - N/A   Scattered Clouds
11:30 PM 60.8 °F 57.2 °F 88% 29.68 in 6.2 mi Variable 3.5 mph - N/A   Mostly Cloudy